Simultaneous Nadir Overpasses (SNOs) Predictions

Prediction of SNOs between GOES-17 and LANDSAT-8 Satellite Orbit:

Table of predicted SNOs for the next 14.0 days since TLE Epoch: 2/11/2023
Index Date Time (GOES-17) GOES-17 Lat,Lon LANDSAT-8 Lat,Lon Distance(km) Time Diff (sec)
1 02/11/2023 16:54:37 0.00,-103.04 -0.59,-100.28 314.71 80
2 02/12/2023 05:13:19 -0.00,-102.60 -0.61,-105.45 323.22 80
3 02/13/2023 16:42:18 0.00,-101.47 -0.89, -97.24 480.87 80
4 02/14/2023 05:01:00 -0.01,-101.03 -0.30,-102.42 157.09 80
5 02/16/2023 04:51:20 -0.01, -99.46 -0.02, -99.38 9.14 80
6 02/18/2023 04:39:00 -0.01, -97.88 0.29, -96.34 174.77 80
7 02/18/2023 16:57:34 0.02, -97.51 0.85,-101.49 451.57 80
8 02/20/2023 04:26:40 -0.01, -96.31 0.64, -93.31 341.41 80
9 02/20/2023 16:45:13 0.02, -95.94 0.56, -98.44 284.71 80
10 02/22/2023 16:32:52 0.01, -94.38 0.23, -95.41 116.98 80
11 02/24/2023 16:23:10 0.02, -92.82 -0.06, -92.36 51.37 80
